Location: Domont
(49.0278°N, 2.3264°E)
Time: 02:12:04
(UTC+00:00)

Orbus 7S? - Pass Details

Date: 06 June 2022
Orbit: 340 x 6374 km, 56.9° (Epoch: 04 July)

Event Time Altitude Azimuth Distance (km) Brightness Sun altitude
Rises 23:41:29 0° 240° (WSW) 4,913 7.9 -18.2°
Reaches altitude 10° 23:43:46 10° 241° (WSW) 4,357 7.6 -18.2°
Maximum altitude 23:57:12 84° 330° (NNW) 3,616 7.3 -18.2°
Drops below altitude 10° 00:33:07 10° 64° (ENE) 9,849 10.1 -17.6°
Sets 00:42:04 0° 67° (ENE) 11,056 10.4 -17.3°
